Regional Weather Roundup
Issued by NWS Kansas City/Pleasant Hill, MO

Home | Current Version | Previous Version | Text Only | Print | Product List | Glossary On
Versions: 1 2 3 4 5 6 7 8 9 10 11 12 13 14 15 16 17 18 19 20 21 22 23 24 25 26 27 28 29 30 31 32 33 34 35 36 37 38 39 40 41 42 43 44 45 46 47 48 49 50
000
ASUS43 KEAX 291511
RWREAX

WEATHER ROUNDUP FOR EASTERN KANSAS AND NORTHWEST MISSOURI
NATIONAL WEATHER SERVICE KANSAS CITY/PLEASANT HILL MO
900 AM CST MON DEC 29 2014

KSZ040-057-103>105-MOZ028-029-037-043-291600-
...KANSAS CITY METROPOLITAN AREA...

CITY           SKY/WX    TMP DP  RH WIND       PRES   REMARKS
K.C. INTL      PTSUNNY   29  24  82 NE5       30.30R WCI  24
K.C. DOWNTOWN  SUNNY     29  23  78 N5        30.31R WCI  24
LEES SUMMIT    SUNNY     27  22  81 E5        30.29R WCI  22
OLATHE - IXD   FLURRIES  28  22  78 NE6       30.28R WCI  22
OLATHE - OJC   SUNNY     28  23  81 NE7       30.27R WCI  21
LAWRENCE       MOSUNNY   25  22  88 CALM      30.30R

$$

MOZ001>008-011>017-020>025-030>033-038>040-044>046-053-054-291600-
...NORTHERN AND CENTRAL MISSOURI...

CITY           SKY/WX    TMP DP  RH WIND       PRES   REMARKS
ST. JOSEPH     CLOUDY    28  25  88 CALM      30.31R
MOSBY            N/A     25  23  93 CALM      30.32R
WARRENSBURG    SUNNY     25  21  86 CALM      30.30R
WHITEMAN AFB   SUNNY     25  21  86 E3        30.29R
CLINTON        SUNNY     27  27 100 NE5       30.30R WCI  21
SEDALIA        SUNNY     29  24  82 CALM      30.31R
WARSAW         NOT AVBL
MARSHALL       SUNNY     28  25  86 E3        30.32R
CHILLICOTHE      N/A     29  23  78 NE3       30.33R
MOBERLY        SUNNY     30  23  74 CALM      30.32R
KIRKSVILLE     SUNNY     28  22  78 NE6       30.32R WCI  22

$$

MOZ041-047>049-056>058-063>065-088>090-097-291600-
...EASTERN AND SOUTHERN MISSOURI...

CITY           SKY/WX    TMP DP  RH WIND       PRES   REMARKS
ST. LOUIS INTL MOSUNNY   29  24  82 NE5       30.32R HAZE    WCI  24
SPIRIT OF STL  FOG       25  21  86 CALM      30.33R VSB<1/4
COLUMBIA       SUNNY     29  26  89 E3        30.30R
JEFFERSON CITY SUNNY     24  21  88 CALM      30.33R
MEXICO         SUNNY    N/A N/A N/A CALM      30.31R HAZE
HANNIBAL       SUNNY     32  28  86 NE3       30.34R
ROLLA          SUNNY     27  24  89 E5        30.26R WCI  22
LEBANON        SUNNY     28  27  93 E5        30.26R WCI  23
OSAGE BEACH    SUNNY     21  19  93 CALM      30.29R
SPRINGFIELD    SUNNY     29  25  85 E6        30.24R WCI  23
NEVADA         SUNNY     28  25  86 E6        30.28R WCI  22
JOPLIN         SUNNY     28  24  85 E6        30.24R WCI  22
WEST PLAINS    CLOUDY    25  23  92 NE7       30.25R FOG     WCI  17

$$

IAZ060-094-KSZ022-034>040-054-083-096-NEZ052-066-093-291600-
...KANSAS...SOUTHEAST NEBRASKA AND IOWA...

CITY           SKY/WX    TMP DP  RH WIND       PRES   REMARKS
TOPEKA         MOSUNNY   26  23  88 CALM      30.29R
MANHATTAN      MOSUNNY   25  21  85 CALM      30.28R
EMPORIA        SUNNY     23  20  88 N3        30.25R
CHANUTE        SUNNY     28  24  85 E3        30.25R
WICHITA        MOSUNNY   28  21  75 NE6       30.21R WCI  22
OMAHA          LGT SNOW  23  19  85 N13       30.39R FOG     WCI  11
LINCOLN        LGT SNOW  22  19  89 NE13      30.37R VSB 1   WCI  10
FALLS CITY     PTSUNNY   29  24  82 N8        30.30R WCI  21
LAMONI         CLOUDY    27  23  85 NE12      30.31R WCI  17
DES MOINES     LGT SNOW  25  19  78 NE15      30.39R WCI  13

$$



USA.gov is the U.S. government's official web portal to all federal, state and local government web resources and services.